CW1353 Weather Reports


time (UTC)temp
C
wind
direction
speed
KPH
gust
KPH
rain 1hr
cm
rain 24hr
cm
rain mn
cm
humidity
%
barometer
mb
20260504035427 13 205 0.0 0.0 0.00 0.00 0.00 89 1020.6
20260504034421 13 205 0.0 0.0 0.00 0.00 0.00 89 1020.5
20260504033415 13 205 0.0 0.0 0.00 0.00 0.00 88 1020.5
20260504032436 13 205 0.0 1.6 0.00 0.00 0.00 86 1020.5
20260504031448 13 205 1.6 1.6 0.00 0.00 0.00 86 1020.5
20260504030421 14 205 1.6 3.2 0.00 0.00 0.00 85 1020.5
20260504025413 14 205 0.0 0.0 0.00 0.00 0.00 85 1020.4
20260504024438 14 205 0.0 0.0 0.00 0.00 0.00 83 1020.4
20260504023426 15 205 0.0 0.0 0.00 0.00 0.00 83 1020.4
20260504022418 15 205 0.0 0.0 0.00 0.00 0.00 81 1020.4
20260504021412 15 205 0.0 0.0 0.00 0.00 0.00 80 1020.4
20260504020425 15 205 0.0 1.6 0.00 0.00 0.00 80 1020.3
20260504015420 16 205 1.6 3.2 0.00 0.00 0.00 79 1020.2
20260504014413 16 205 1.6 1.6 0.00 0.00 0.00 77 1020.2
20260504013438 16 205 0.0 0.0 0.00 0.00 0.00 75 1020.0
20260504012434 17 205 0.0 1.6 0.00 0.00 0.00 74 1019.9
20260504011425 17 205 0.0 1.6 0.00 0.00 0.00 72 1019.7
20260504010418 18 205 0.0 1.6 0.00 0.00 0.00 70 1019.7
20260504005411 18 205 0.0 3.2 0.00 0.00 0.00 67 1019.6
20260504004435 19 204 1.6 3.2 0.00 0.00 0.00 65 1019.5
20260504003429 19 205 0.0 3.2 0.00 0.00 0.00 63 1019.5
20260504002444 20 205 1.6 6.4 0.00 0.00 0.00 62 1019.4
20260504001417 20 204 3.2 9.7 0.00 0.00 0.00 60 1019.3
20260504000416 21 244 1.6 11.3 0.00 0.00 0.00 57 1019.3
20260503235433 21 208 1.6 9.7 0.00 0.00 0.00 55 1019.2
20260503234448 22 228 4.8 8.0 0.00 0.00 0.00 52 1019.3
20260503233423 23 262 0.0 6.4 0.00 0.00 0.00 44 1019.2
20260503232415 23 262 1.6 8.0 0.00 0.00 0.00 41 1019.2
20260503231458 23 340 3.2 8.0 0.00 0.00 0.00 41 1019.3
20260503230430 23 288 1.6 8.0 0.00 0.00 0.00 41 1019.3
20260503225422 23 336 3.2 9.7 0.00 0.00 0.00 40 1019.4
20260503224430 23 338 4.8 11.3 0.00 0.00 0.00 41 1019.3
20260503223421 23 341 0.0 8.0 0.00 0.00 0.00 40 1019.4
20260503222413 23 339 4.8 9.7 0.00 0.00 0.00 40 1019.3
20260503221435 24 290 4.8 11.3 0.00 0.00 0.00 40 1019.5
20260503220433 24 303 4.8 9.7 0.00 0.00 0.00 40 1019.4
20260503215425 24 334 4.8 14.5 0.00 0.00 0.00 37 1019.5
20260503214411 25 273 3.2 12.9 0.00 0.00 0.00 37 1019.5
20260503213425 25 330 3.2 9.7 0.00 0.00 0.00 38 1019.7
20260503212433 25 257 8.0 16.1 0.00 0.00 0.00 37 1019.7
20260503211435 25 203 4.8 14.5 0.00 0.00 0.00 37 1019.9
20260503210427 25 309 6.4 12.9 0.00 0.00 0.00 38 1019.9
20260503205417 24 28 4.8 17.7 0.00 0.00 0.00 39 1020.1
20260503204500 25 55 4.8 12.9 0.00 0.00 0.00 37 1020.1
20260503203429 25 327 3.2 16.1 0.00 0.00 0.00 40 1020.4
20260503202443 25 283 6.4 16.1 0.00 0.00 0.00 38 1020.5
20260503201415 25 290 6.4 17.7 0.00 0.00 0.00 38 1020.6
20260503200430 25 268 12.9 20.9 0.00 0.00 0.00 38 1020.7
20260503195422 24 331 6.4 14.5 0.00 0.00 0.00 38 1021.0
20260503194415 24 333 4.8 14.5 0.00 0.00 0.00 38 1021.1
20260503193411 24 337 4.8 9.7 0.00 0.00 0.00 38 1021.1
20260503192433 24 59 6.4 11.3 0.00 0.00 0.00 40 1021.2
20260503191444 24 47 4.8 8.0 0.00 0.00 0.00 39 1021.4
20260503190415 23 294 4.8 12.9 0.00 0.03 0.00 37 1021.6
20260503185432 23 46 6.4 17.7 0.00 0.03 0.00 37 1021.7
20260503184425 23 49 3.2 9.7 0.00 0.03 0.00 38 1021.8
20260503183418 23 76 6.4 19.3 0.00 0.03 0.00 38 1022.0
20260503182411 23 95 4.8 17.7 0.00 0.03 0.00 38 1022.3
20260503181425 23 238 3.2 12.9 0.00 0.03 0.00 38 1022.3
20260503180418 23 333 4.8 9.7 0.00 0.08 0.00 38 1022.6
20260503175412 23 336 4.8 12.9 0.00 0.08 0.00 43 1022.6
20260503174433 23 81 3.2 8.0 0.00 0.08 0.00 43 1022.7
20260503173425 23 333 4.8 11.3 0.00 0.08 0.00 41 1022.8
20260503172416 23 89 8.0 12.9 0.00 0.08 0.00 38 1023.0
20260503171447 22 83 4.8 16.1 0.00 0.08 0.00 40 1023.1
20260503170416 22 68 0.0 11.3 0.00 0.18 0.00 40 1023.0
20260503150439 21 321 3.2 11.3 0.00 0.43 0.00 46 1023.8
20260503130416 16 336 0.0 0.0 0.00 0.69 0.00 73 1022.8
20260503110432 7 336 1.6 6.4 0.00 0.97 0.00 98 1022.2
20260503090413 8 336 0.0 0.0 0.00 1.32 0.00 96 1021.2
20260503081454 8 336 0.0 0.0 0.00 1.32 0.00 95 1021.0
20260503080427 8 336 0.0 0.0 0.00 1.52 0.00 95 1021.0
20260503072414 8 336 0.0 0.0 0.00 1.52 0.00 93 1020.7
20260503071427 8 336 0.0 0.0 0.00 1.52 0.00 92 1020.7
20260503070421 9 336 0.0 0.0 0.00 1.73 0.00 92 1020.6
20260503054422 11 336 0.0 0.0 0.00 1.91 0.00 83 1020.7
20260503053414 11 336 0.0 0.0 0.00 1.91 0.00 83 1020.4
20260503052423 11 336 0.0 0.0 0.00 1.91 0.00 83 1020.5
20260503051414 11 336 0.0 1.6 0.00 1.91 0.00 81 1020.4
20260503050429 12 336 0.0 0.0 0.00 2.11 1.91 83 1020.3
20260503045428 12 336 0.0 1.6 0.00 2.11 1.91 80 1020.1
20260503044422 12 336 0.0 3.2 0.00 2.11 1.91 78 1020.3
20260503043416 12 336 0.0 3.2 0.00 2.11 1.91 77 1020.3
20260503042428 12 336 0.0 0.0 0.00 2.11 1.91 77 1020.3
20260503041423 13 336 0.0 1.6 0.00 2.11 1.91 74 1020.2
20260503040418 13 336 0.0 1.6 0.00 2.34 1.91 73 1020.3